Time,TemperatureF,DewpointF,PressureIn,WindDirection,WindDirectionDegrees,WindSpeedMPH,WindSpeedGustMPH,Humidity,HourlyPrecipIn,Conditions,Clouds,dailyrainin,SoftwareType,DateUTC
2013-07-12 00:05:00,69.1,68.8,29.89,West,275,3.0,4.0,99,0.00,,,0.00,Wunderground v.1.15,2013-07-12 03:05:00,
2013-07-12 00:10:00,69.0,68.7,29.89,West,279,3.0,3.0,99,0.00,,,0.00,Wunderground v.1.15,2013-07-12 03:10:00,
2013-07-12 00:15:00,68.9,68.6,29.89,West,271,4.0,7.0,99,0.00,,,0.00,Wunderground v.1.15,2013-07-12 03:15:00,
2013-07-12 00:25:00,68.8,68.5,29.90,WNW,287,5.0,5.0,99,0.00,,,0.00,Wunderground v.1.15,2013-07-12 03:25:00,
2013-07-12 00:30:00,68.7,68.4,29.90,West,280,4.0,4.0,99,0.00,,,0.00,Wunderground v.1.15,2013-07-12 03:30:00,
2013-07-12 00:35:00,68.6,68.3,29.90,WNW,292,2.0,4.0,99,0.00,,,0.00,Wunderground v.1.15,2013-07-12 03:35:00,
2013-07-12 00:40:00,68.6,68.3,29.91,North,355,1.0,6.0,99,0.00,,,0.00,Wunderground v.1.15,2013-07-12 03:40:00,
2013-07-12 00:50:00,68.5,68.2,29.91,NW,311,5.0,5.0,99,0.00,,,0.00,Wunderground v.1.15,2013-07-12 03:50:00,
2013-07-12 00:55:00,68.6,68.3,29.92,NW,311,6.0,6.0,99,0.00,,,0.00,Wunderground v.1.15,2013-07-12 03:55:00,
2013-07-12 01:00:00,68.6,68.3,29.91,North,349,5.0,5.0,99,0.00,,,0.00,Wunderground v.1.15,2013-07-12 04:00:00,
2013-07-12 01:05:00,68.5,68.2,29.91,NNE,17,4.0,5.0,99,0.00,,,0.00,Wunderground v.1.15,2013-07-12 04:05:00,
2013-07-12 01:10:00,68.5,68.2,29.91,NNW,344,3.0,3.0,99,0.00,,,0.00,Wunderground v.1.15,2013-07-12 04:10:00,
2013-07-12 01:15:00,68.4,67.8,29.92,NNE,15,3.0,3.0,98,0.00,,,0.00,Wunderground v.1.15,2013-07-12 04:15:00,
2013-07-12 01:20:00,68.4,67.8,29.92,NNE,23,3.0,3.0,98,0.00,,,0.00,Wunderground v.1.15,2013-07-12 04:20:00,
2013-07-12 01:25:00,68.3,67.4,29.92,North,5,3.0,3.0,97,0.00,,,0.00,Wunderground v.1.15,2013-07-12 04:25:00,
2013-07-12 01:30:00,68.1,66.6,29.91,North,355,3.0,3.0,95,0.00,,,0.00,Wunderground v.1.15,2013-07-12 04:30:00,
2013-07-12 01:40:00,67.6,62.3,29.92,North,355,4.0,4.0,83,0.00,,,0.00,Wunderground v.1.15,2013-07-12 04:40:00,
2013-07-12 01:45:00,67.5,61.5,29.92,NE,36,4.0,5.0,81,0.00,,,0.00,Wunderground v.1.15,2013-07-12 04:45:00,
2013-07-12 01:55:00,67.4,59.9,29.92,NNE,17,4.0,4.0,77,0.00,,,0.00,Wunderground v.1.15,2013-07-12 04:55:00,
2013-07-12 02:00:00,67.3,59.1,29.92,North,5,4.0,4.0,75,0.00,,,0.00,Wunderground v.1.15,2013-07-12 05:00:00,
2013-07-12 02:05:00,67.3,58.7,29.92,North,350,5.0,5.0,74,0.00,,,0.00,Wunderground v.1.15,2013-07-12 05:05:00,
2013-07-12 02:10:00,67.3,58.7,29.92,NNE,17,5.0,5.0,74,0.00,,,0.00,Wunderground v.1.15,2013-07-12 05:10:00,
2013-07-12 02:15:00,67.2,58.2,29.92,NNW,336,4.0,5.0,73,0.00,,,0.00,Wunderground v.1.15,2013-07-12 05:15:00,
2013-07-12 02:20:00,67.1,57.8,29.93,NNE,26,4.0,5.0,72,0.00,,,0.00,Wunderground v.1.15,2013-07-12 05:20:00,
2013-07-12 02:25:00,67.1,57.8,29.92,SSE,153,4.0,5.0,72,0.00,,,0.00,Wunderground v.1.15,2013-07-12 05:25:00,
2013-07-12 02:30:00,67.2,57.9,29.92,NNE,26,5.0,5.0,72,0.00,,,0.00,Wunderground v.1.15,2013-07-12 05:30:00,
2013-07-12 02:35:00,67.2,57.9,29.93,NNE,30,5.0,5.0,72,0.00,,,0.00,Wunderground v.1.15,2013-07-12 05:35:00,
2013-07-12 02:40:00,67.1,57.8,29.93,East,90,5.0,5.0,72,0.00,,,0.00,Wunderground v.1.15,2013-07-12 05:40:00,
2013-07-12 02:45:00,67.1,58.2,29.93,North,11,5.0,6.0,73,0.00,,,0.00,Wunderground v.1.15,2013-07-12 05:45:00,
2013-07-12 02:50:00,67.0,58.1,29.93,NNE,19,5.0,7.0,73,0.00,,,0.00,Wunderground v.1.15,2013-07-12 05:50:00,
2013-07-12 02:55:00,66.9,58.0,29.93,North,355,5.0,7.0,73,0.00,,,0.00,Wunderground v.1.15,2013-07-12 05:55:00,
2013-07-12 03:00:00,66.8,57.9,29.93,North,5,5.0,5.0,73,0.00,,,0.00,Wunderground v.1.15,2013-07-12 06:00:00,
2013-07-12 03:05:00,66.7,58.1,29.93,North,11,5.0,5.0,74,0.00,,,0.00,Wunderground v.1.15,2013-07-12 06:05:00,
2013-07-12 03:10:00,66.6,58.1,29.93,NNE,26,5.0,6.0,74,0.00,,,0.00,Wunderground v.1.15,2013-07-12 06:10:00,
2013-07-12 03:20:00,66.3,58.1,29.93,North,360,5.0,5.0,75,0.00,,,0.00,Wunderground v.1.15,2013-07-12 06:20:00,
2013-07-12 03:25:00,66.2,58.4,29.94,North,360,5.0,8.0,76,0.00,,,0.00,Wunderground v.1.15,2013-07-12 06:25:00,
2013-07-12 03:30:00,66.1,58.3,29.94,NNE,15,5.0,5.0,76,0.00,,,0.00,Wunderground v.1.15,2013-07-12 06:30:00,
2013-07-12 03:35:00,66.1,58.3,29.94,North,11,5.0,6.0,76,0.00,,,0.00,Wunderground v.1.15,2013-07-12 06:35:00,
2013-07-12 03:40:00,66.0,58.6,29.94,NNE,33,5.0,6.0,77,0.00,,,0.00,Wunderground v.1.15,2013-07-12 06:40:00,
2013-07-12 03:45:00,65.9,58.5,29.94,North,355,5.0,8.0,77,0.00,,,0.00,Wunderground v.1.15,2013-07-12 06:45:00,
2013-07-12 03:55:00,65.8,58.7,29.94,NNE,20,4.0,4.0,78,0.00,,,0.00,Wunderground v.1.15,2013-07-12 06:55:00,
2013-07-12 04:00:00,65.8,58.7,29.95,NNE,23,4.0,5.0,78,0.00,,,0.00,Wunderground v.1.15,2013-07-12 07:00:00,
2013-07-12 04:05:00,65.8,58.7,29.94,NNE,21,4.0,5.0,78,0.00,,,0.00,Wunderground v.1.15,2013-07-12 07:05:00,
2013-07-12 04:10:00,65.7,59.0,29.95,North,360,4.0,4.0,79,0.00,,,0.00,Wunderground v.1.15,2013-07-12 07:10:00,
2013-07-12 04:15:00,65.6,59.3,29.96,NNE,14,4.0,4.0,80,0.00,,,0.00,Wunderground v.1.15,2013-07-12 07:15:00,
2013-07-12 04:25:00,65.4,59.4,29.96,North,5,5.0,5.0,81,0.00,,,0.00,Wunderground v.1.15,2013-07-12 07:25:00,
2013-07-12 04:30:00,65.3,60.0,29.96,North,9,5.0,5.0,83,0.00,,,0.00,Wunderground v.1.15,2013-07-12 07:30:00,
2013-07-12 04:35:00,65.2,60.2,29.96,NNE,16,5.0,5.0,84,0.00,,,0.00,Wunderground v.1.15,2013-07-12 07:35:00,
2013-07-12 04:40:00,65.0,60.7,29.97,NE,49,4.0,5.0,86,0.00,,,0.00,Wunderground v.1.15,2013-07-12 07:40:00,
2013-07-12 04:45:00,64.8,60.8,29.97,NNE,30,3.0,5.0,87,0.00,,,0.00,Wunderground v.1.15,2013-07-12 07:45:00,
2013-07-12 04:50:00,64.7,61.4,29.97,ENE,76,3.0,3.0,89,0.00,,,0.00,Wunderground v.1.15,2013-07-12 07:50:00,
2013-07-12 04:55:00,64.5,61.2,29.97,NE,47,3.0,4.0,89,0.00,,,0.00,Wunderground v.1.15,2013-07-12 07:55:00,
2013-07-12 05:00:00,64.5,61.2,29.97,ENE,63,3.0,3.0,89,0.00,,,0.00,Wunderground v.1.15,2013-07-12 08:00:00,
2013-07-12 05:05:00,64.5,60.9,29.97,NE,38,3.0,3.0,88,0.00,,,0.00,Wunderground v.1.15,2013-07-12 08:05:00,
2013-07-12 05:10:00,64.4,60.8,29.98,NNE,19,3.0,3.0,88,0.00,,,0.00,Wunderground v.1.15,2013-07-12 08:10:00,
2013-07-12 05:15:00,64.3,60.7,29.98,North,5,2.0,3.0,88,0.00,,,0.00,Wunderground v.1.15,2013-07-12 08:15:00,
2013-07-12 05:20:00,64.3,60.3,29.98,NNE,21,2.0,2.0,87,0.00,,,0.00,Wunderground v.1.15,2013-07-12 08:20:00,
2013-07-12 05:25:00,64.3,60.3,29.99,ENE,67,2.0,2.0,87,0.00,,,0.00,Wunderground v.1.15,2013-07-12 08:25:00,
2013-07-12 05:30:00,64.3,60.3,29.99,ENE,58,2.0,2.0,87,0.00,,,0.00,Wunderground v.1.15,2013-07-12 08:30:00,
2013-07-12 05:35:00,64.2,60.2,30.00,NE,49,1.0,2.0,87,0.00,,,0.00,Wunderground v.1.15,2013-07-12 08:35:00,
2013-07-12 05:40:00,64.1,60.2,30.00,NE,40,1.0,1.0,87,0.00,,,0.00,Wunderground v.1.15,2013-07-12 08:40:00,
2013-07-12 05:45:00,64.0,60.1,30.00,East,98,1.0,1.0,87,0.00,,,0.00,Wunderground v.1.15,2013-07-12 08:45:00,
2013-07-12 05:55:00,63.8,60.2,30.00,East,94,1.0,3.0,88,0.00,,,0.00,Wunderground v.1.15,2013-07-12 08:55:00,
2013-07-12 06:00:00,63.6,60.0,30.00,NE,40,1.0,1.0,88,0.00,,,0.00,Wunderground v.1.15,2013-07-12 09:00:00,
2013-07-12 06:05:00,63.5,59.9,30.01,NE,49,1.0,3.0,88,0.00,,,0.00,Wunderground v.1.15,2013-07-12 09:05:00,
2013-07-12 06:10:00,63.4,60.1,30.01,NE,34,1.0,2.0,89,0.00,,,0.00,Wunderground v.1.15,2013-07-12 09:10:00,
2013-07-12 06:15:00,63.3,60.0,30.01,NE,54,1.0,2.0,89,0.00,,,0.00,Wunderground v.1.15,2013-07-12 09:15:00,
2013-07-12 06:20:00,63.1,59.8,30.01,ENE,59,0.0,0.0,89,0.00,,,0.00,Wunderground v.1.15,2013-07-12 09:20:00,
2013-07-12 06:25:00,63.0,59.7,30.02,NE,40,0.0,1.0,89,0.00,,,0.00,Wunderground v.1.15,2013-07-12 09:25:00,
2013-07-12 06:30:00,62.9,59.6,30.02,NE,40,1.0,1.0,89,0.00,,,0.00,Wunderground v.1.15,2013-07-12 09:30:00,
2013-07-12 06:35:00,62.8,59.5,30.02,NE,40,0.0,1.0,89,0.00,,,0.00,Wunderground v.1.15,2013-07-12 09:35:00,
2013-07-12 06:40:00,62.7,59.7,30.03,NE,40,0.0,0.0,90,0.00,,,0.00,Wunderground v.1.15,2013-07-12 09:40:00,
2013-07-12 06:45:00,62.8,60.1,30.03,North,9,0.0,0.0,91,0.00,,,0.00,Wunderground v.1.15,2013-07-12 09:45:00,
2013-07-12 06:50:00,63.0,60.3,30.03,North,9,0.0,0.0,91,0.00,,,0.00,Wunderground v.1.15,2013-07-12 09:50:00,
2013-07-12 06:55:00,63.4,60.7,30.03,North,9,0.0,0.0,91,0.00,,,0.00,Wunderground v.1.15,2013-07-12 09:55:00,
2013-07-12 07:00:00,64.0,61.0,30.04,North,9,0.0,0.0,90,0.00,,,0.00,Wunderground v.1.15,2013-07-12 10:00:00,
2013-07-12 07:05:00,64.8,61.2,30.04,NNW,338,1.0,3.0,88,0.00,,,0.00,Wunderground v.1.15,2013-07-12 10:05:00,
2013-07-12 07:10:00,65.6,61.6,30.04,NNW,340,1.0,1.0,87,0.00,,,0.00,Wunderground v.1.15,2013-07-12 10:10:00,
2013-07-12 07:15:00,66.3,61.7,30.04,North,360,0.0,1.0,85,0.00,,,0.00,Wunderground v.1.15,2013-07-12 10:15:00,
2013-07-12 07:20:00,66.7,61.7,30.04,North,360,0.0,0.0,84,0.00,,,0.00,Wunderground v.1.15,2013-07-12 10:20:00,
2013-07-12 07:25:00,67.2,61.9,30.04,NNW,345,0.0,3.0,83,0.00,,,0.00,Wunderground v.1.15,2013-07-12 10:25:00,
2013-07-12 07:30:00,67.6,62.6,30.04,North,5,1.0,2.0,84,0.00,,,0.00,Wunderground v.1.15,2013-07-12 10:30:00,
2013-07-12 07:40:00,68.9,62.8,30.05,North,360,1.0,1.0,81,0.00,,,0.00,Wunderground v.1.15,2013-07-12 10:40:00,
2013-07-12 07:45:00,68.7,62.6,30.05,NNE,22,2.0,2.0,81,0.00,,,0.00,Wunderground v.1.15,2013-07-12 10:45:00,
2013-07-12 07:50:00,68.5,62.8,30.06,NE,42,2.0,5.0,82,0.00,,,0.00,Wunderground v.1.15,2013-07-12 10:50:00,
2013-07-12 07:55:00,68.5,63.1,30.06,North,11,2.0,5.0,83,0.00,,,0.00,Wunderground v.1.15,2013-07-12 10:55:00,
2013-07-12 08:00:00,68.7,62.6,30.06,NNE,22,2.0,3.0,81,0.00,,,0.00,Wunderground v.1.15,2013-07-12 11:00:00,
2013-07-12 08:05:00,68.6,62.5,30.06,North,5,2.0,3.0,81,0.00,,,0.00,Wunderground v.1.15,2013-07-12 11:05:00,
2013-07-12 08:10:00,68.7,62.3,30.06,NNE,25,2.0,4.0,80,0.00,,,0.00,Wunderground v.1.15,2013-07-12 11:10:00,
2013-07-12 08:15:00,68.6,62.5,30.07,NNE,19,2.0,4.0,81,0.00,,,0.00,Wunderground v.1.15,2013-07-12 11:15:00,
2013-07-12 08:20:00,69.0,62.6,30.07,NE,53,2.0,3.0,80,0.00,,,0.00,Wunderground v.1.15,2013-07-12 11:20:00,
2013-07-12 08:25:00,69.3,62.5,30.07,NE,51,2.0,3.0,79,0.00,,,0.00,Wunderground v.1.15,2013-07-12 11:25:00,
2013-07-12 08:30:00,69.5,62.3,30.07,NNE,16,2.0,3.0,78,0.00,,,0.00,Wunderground v.1.15,2013-07-12 11:30:00,
2013-07-12 08:35:00,69.3,61.4,30.08,NNE,29,2.0,3.0,76,0.00,,,0.00,Wunderground v.1.15,2013-07-12 11:35:00,
2013-07-12 08:40:00,68.8,61.3,30.08,NE,43,3.0,5.0,77,0.00,,,0.00,Wunderground v.1.15,2013-07-12 11:40:00,
2013-07-12 08:45:00,68.4,60.9,30.08,East,91,3.0,5.0,77,0.00,,,0.00,Wunderground v.1.15,2013-07-12 11:45:00,
2013-07-12 08:55:00,68.4,61.3,30.08,NNE,33,3.0,3.0,78,0.00,,,0.00,Wunderground v.1.15,2013-07-12 11:55:00,
2013-07-12 09:00:00,68.5,61.0,30.09,NE,41,3.0,4.0,77,0.00,,,0.00,Wunderground v.1.15,2013-07-12 12:00:00,
2013-07-12 09:05:00,68.9,62.1,30.09,NNE,13,3.0,4.0,79,0.00,,,0.00,Wunderground v.1.15,2013-07-12 12:05:00,
2013-07-12 09:10:00,69.3,61.4,30.09,NNE,19,3.0,4.0,76,0.00,,,0.00,Wunderground v.1.15,2013-07-12 12:10:00,
2013-07-12 09:15:00,69.6,61.3,30.09,NNE,13,3.0,4.0,75,0.00,,,0.00,Wunderground v.1.15,2013-07-12 12:15:00,
2013-07-12 09:20:00,70.3,62.4,30.09,NNE,26,3.0,5.0,76,0.00,,,0.00,Wunderground v.1.15,2013-07-12 12:20:00,
2013-07-12 09:25:00,70.2,61.1,30.09,East,80,3.0,5.0,73,0.00,,,0.00,Wunderground v.1.15,2013-07-12 12:25:00,
2013-07-12 09:30:00,70.2,62.3,30.10,NNE,24,3.0,3.0,76,0.00,,,0.00,Wunderground v.1.15,2013-07-12 12:30:00,
2013-07-12 09:35:00,70.4,60.9,30.09,ENE,57,3.0,4.0,72,0.00,,,0.00,Wunderground v.1.15,2013-07-12 12:35:00,
2013-07-12 09:40:00,70.2,60.7,30.09,ENE,72,3.0,3.0,72,0.00,,,0.00,Wunderground v.1.15,2013-07-12 12:40:00,
2013-07-12 09:45:00,70.1,61.4,30.10,East,81,3.0,3.0,74,0.00,,,0.00,Wunderground v.1.15,2013-07-12 12:45:00,
2013-07-12 09:50:00,70.1,61.0,30.10,ENE,75,4.0,4.0,73,0.00,,,0.00,Wunderground v.1.15,2013-07-12 12:50:00,
2013-07-12 09:55:00,70.2,61.5,30.10,NNE,26,4.0,4.0,74,0.00,,,0.00,Wunderground v.1.15,2013-07-12 12:55:00,
2013-07-12 10:00:00,70.3,60.4,30.10,NE,40,4.0,4.0,71,0.00,,,0.00,Wunderground v.1.15,2013-07-12 13:00:00,
2013-07-12 10:05:00,70.1,60.7,30.10,NNE,26,4.0,4.0,72,0.00,,,0.00,Wunderground v.1.15,2013-07-12 13:05:00,
2013-07-12 10:10:00,70.2,60.4,30.10,NNE,28,4.0,4.0,71,0.00,,,0.00,Wunderground v.1.15,2013-07-12 13:10:00,
2013-07-12 10:15:00,70.3,60.8,30.10,North,5,4.0,4.0,72,0.00,,,0.00,Wunderground v.1.15,2013-07-12 13:15:00,
2013-07-12 10:20:00,70.0,61.3,30.10,ENE,71,4.0,4.0,74,0.00,,,0.00,Wunderground v.1.15,2013-07-12 13:20:00,
2013-07-12 10:25:00,70.1,59.9,30.11,East,90,4.0,6.0,70,0.00,,,0.00,Wunderground v.1.15,2013-07-12 13:25:00,
2013-07-12 10:30:00,69.7,59.5,30.11,East,79,5.0,5.0,70,0.00,,,0.00,Wunderground v.1.15,2013-07-12 13:30:00,
2013-07-12 10:35:00,69.7,60.3,30.12,NE,46,5.0,8.0,72,0.00,,,0.00,Wunderground v.1.15,2013-07-12 13:35:00,
2013-07-12 10:40:00,69.5,59.7,30.12,NE,36,5.0,5.0,71,0.00,,,0.00,Wunderground v.1.15,2013-07-12 13:40:00,
2013-07-12 10:50:00,69.8,58.3,30.12,NE,37,5.0,7.0,67,0.00,,,0.00,Wunderground v.1.15,2013-07-12 13:50:00,
2013-07-12 10:55:00,69.3,57.9,30.12,NE,37,6.0,7.0,67,0.00,,,0.00,Wunderground v.1.15,2013-07-12 13:55:00,
2013-07-12 11:00:00,69.3,58.3,30.12,North,9,6.0,7.0,68,0.00,,,0.00,Wunderground v.1.15,2013-07-12 14:00:00,
2013-07-12 11:10:00,69.5,58.5,30.12,ENE,77,5.0,7.0,68,0.00,,,0.00,Wunderground v.1.15,2013-07-12 14:10:00,
2013-07-12 11:15:00,69.5,59.3,30.12,NE,50,5.0,7.0,70,0.00,,,0.00,Wunderground v.1.15,2013-07-12 14:15:00,
2013-07-12 11:20:00,69.7,58.3,30.12,ENE,63,5.0,5.0,67,0.00,,,0.00,Wunderground v.1.15,2013-07-12 14:20:00,
2013-07-12 11:25:00,69.4,58.8,30.13,ENE,65,5.0,5.0,69,0.00,,,0.00,Wunderground v.1.15,2013-07-12 14:25:00,
2013-07-12 11:35:00,69.4,59.2,30.13,ENE,76,5.0,5.0,70,0.00,,,0.00,Wunderground v.1.15,2013-07-12 14:35:00,
2013-07-12 11:45:00,69.8,58.8,30.13,NNE,26,5.0,5.0,68,0.00,,,0.00,Wunderground v.1.15,2013-07-12 14:45:00,
2013-07-12 11:50:00,69.9,57.6,30.13,NE,40,5.0,5.0,65,0.00,,,0.00,Wunderground v.1.15,2013-07-12 14:50:00,
2013-07-12 11:55:00,69.4,57.5,30.13,ESE,102,6.0,6.0,66,0.00,,,0.00,Wunderground v.1.15,2013-07-12 14:55:00,
2013-07-12 12:00:00,69.9,58.4,30.13,NE,56,5.0,6.0,67,0.00,,,0.00,Wunderground v.1.15,2013-07-12 15:00:00,
2013-07-12 12:05:00,70.0,58.5,30.13,NE,43,4.0,6.0,67,0.00,,,0.00,Wunderground v.1.15,2013-07-12 15:05:00,
2013-07-12 12:15:00,69.6,58.6,30.13,East,86,5.0,11.0,68,0.00,,,0.00,Wunderground v.1.15,2013-07-12 15:15:00,
2013-07-12 12:20:00,69.5,56.8,30.14,NE,40,5.0,5.0,64,0.00,,,0.00,Wunderground v.1.15,2013-07-12 15:20:00,
2013-07-12 12:25:00,70.0,58.1,30.13,NE,51,5.0,8.0,66,0.00,,,0.00,Wunderground v.1.15,2013-07-12 15:25:00,
2013-07-12 12:30:00,70.4,57.6,30.14,ENE,72,4.0,4.0,64,0.00,,,0.00,Wunderground v.1.15,2013-07-12 15:30:00,
2013-07-12 12:40:00,70.3,59.2,30.14,NE,50,5.0,5.0,68,0.00,,,0.00,Wunderground v.1.15,2013-07-12 15:40:00,
2013-07-12 12:45:00,70.3,58.8,30.14,ENE,64,4.0,8.0,67,0.00,,,0.00,Wunderground v.1.15,2013-07-12 15:45:00,
2013-07-12 12:50:00,70.0,57.7,30.14,East,88,5.0,7.0,65,0.00,,,0.00,Wunderground v.1.15,2013-07-12 15:50:00,
2013-07-12 12:55:00,70.5,60.2,30.14,NNE,30,4.0,7.0,70,0.00,,,0.00,Wunderground v.1.15,2013-07-12 15:55:00,
2013-07-12 13:00:00,70.8,58.4,30.14,East,84,4.0,6.0,65,0.00,,,0.00,Wunderground v.1.15,2013-07-12 16:00:00,
2013-07-12 13:05:00,70.5,58.2,30.14,ENE,65,4.0,6.0,65,0.00,,,0.00,Wunderground v.1.15,2013-07-12 16:05:00,
2013-07-12 13:10:00,70.1,59.0,30.14,East,96,4.0,6.0,68,0.00,,,0.00,Wunderground v.1.15,2013-07-12 16:10:00,
2013-07-12 13:20:00,70.7,59.6,30.14,NE,48,4.0,4.0,68,0.00,,,0.00,Wunderground v.1.15,2013-07-12 16:20:00,
2013-07-12 13:25:00,70.8,60.1,30.14,ENE,76,4.0,4.0,69,0.00,,,0.00,Wunderground v.1.15,2013-07-12 16:25:00,
2013-07-12 13:30:00,71.3,59.4,30.14,ENE,73,4.0,4.0,66,0.00,,,0.00,Wunderground v.1.15,2013-07-12 16:30:00,
2013-07-12 13:35:00,70.9,58.1,30.14,ESE,107,4.0,4.0,64,0.00,,,0.00,Wunderground v.1.15,2013-07-12 16:35:00,
2013-07-12 13:45:00,71.0,58.2,30.14,NE,34,4.0,4.0,64,0.00,,,0.00,Wunderground v.1.15,2013-07-12 16:45:00,
2013-07-12 13:50:00,71.0,59.9,30.15,NE,55,4.0,8.0,68,0.00,,,0.00,Wunderground v.1.15,2013-07-12 16:50:00,
2013-07-12 13:55:00,71.1,60.4,30.15,NNE,33,4.0,8.0,69,0.00,,,0.00,Wunderground v.1.15,2013-07-12 16:55:00,
2013-07-12 14:00:00,71.2,58.8,30.14,NNE,32,4.0,4.0,65,0.00,,,0.00,Wunderground v.1.15,2013-07-12 17:00:00,
2013-07-12 14:10:00,71.2,59.3,30.15,ENE,59,4.0,4.0,66,0.00,,,0.00,Wunderground v.1.15,2013-07-12 17:10:00,
2013-07-12 14:20:00,71.4,59.4,30.15,East,82,4.0,4.0,66,0.00,,,0.00,Wunderground v.1.15,2013-07-12 17:20:00,
2013-07-12 14:25:00,71.8,59.4,30.15,NNE,30,4.0,6.0,65,0.00,,,0.00,Wunderground v.1.15,2013-07-12 17:25:00,
2013-07-12 14:30:00,71.7,58.4,30.15,NNE,22,4.0,4.0,63,0.00,,,0.00,Wunderground v.1.15,2013-07-12 17:30:00,
2013-07-12 14:35:00,72.1,60.1,30.15,ENE,62,4.0,4.0,66,0.00,,,0.00,Wunderground v.1.15,2013-07-12 17:35:00,
2013-07-12 14:40:00,71.7,58.0,30.15,ENE,63,3.0,3.0,62,0.00,,,0.00,Wunderground v.1.15,2013-07-12 17:40:00,
2013-07-12 14:45:00,71.5,58.7,30.16,ESE,103,4.0,4.0,64,0.00,,,0.00,Wunderground v.1.15,2013-07-12 17:45:00,
2013-07-12 14:50:00,71.5,59.5,30.15,NE,46,3.0,3.0,66,0.00,,,0.00,Wunderground v.1.15,2013-07-12 17:50:00,
2013-07-12 14:55:00,71.2,59.3,30.15,ENE,57,3.0,3.0,66,0.00,,,0.00,Wunderground v.1.15,2013-07-12 17:55:00,
2013-07-12 15:00:00,71.0,59.1,30.15,NNE,32,4.0,4.0,66,0.00,,,0.00,Wunderground v.1.15,2013-07-12 18:00:00,
2013-07-12 15:05:00,71.4,58.1,30.16,NE,52,4.0,4.0,63,0.00,,,0.00,Wunderground v.1.15,2013-07-12 18:05:00,
2013-07-12 15:10:00,71.7,59.7,30.16,NE,49,3.0,3.0,66,0.00,,,0.00,Wunderground v.1.15,2013-07-12 18:10:00,
2013-07-12 15:20:00,71.8,58.5,30.16,East,90,4.0,4.0,63,0.00,,,0.00,Wunderground v.1.15,2013-07-12 18:20:00,
2013-07-12 15:25:00,71.7,59.3,30.15,ENE,69,4.0,4.0,65,0.00,,,0.00,Wunderground v.1.15,2013-07-12 18:25:00,
2013-07-12 15:30:00,71.6,58.8,30.15,East,81,3.0,3.0,64,0.00,,,0.00,Wunderground v.1.15,2013-07-12 18:30:00,
2013-07-12 15:40:00,71.2,58.4,30.15,East,82,4.0,6.0,64,0.00,,,0.00,Wunderground v.1.15,2013-07-12 18:40:00,
2013-07-12 15:45:00,71.3,58.5,30.15,East,84,4.0,7.0,64,0.00,,,0.00,Wunderground v.1.15,2013-07-12 18:45:00,
2013-07-12 15:50:00,71.4,59.0,30.16,NE,39,3.0,5.0,65,0.00,,,0.00,Wunderground v.1.15,2013-07-12 18:50:00,
2013-07-12 16:00:00,71.9,59.9,30.15,NE,50,3.0,4.0,66,0.00,,,0.00,Wunderground v.1.15,2013-07-12 19:00:00,
2013-07-12 16:10:00,71.8,59.8,30.15,NE,45,3.0,4.0,66,0.00,,,0.00,Wunderground v.1.15,2013-07-12 19:10:00,
2013-07-12 16:15:00,71.8,58.5,30.15,East,96,3.0,4.0,63,0.00,,,0.00,Wunderground v.1.15,2013-07-12 19:15:00,
2013-07-12 16:20:00,72.1,59.2,30.15,NNE,33,3.0,4.0,64,0.00,,,0.00,Wunderground v.1.15,2013-07-12 19:20:00,
2013-07-12 16:25:00,72.1,59.2,30.15,ENE,58,3.0,4.0,64,0.00,,,0.00,Wunderground v.1.15,2013-07-12 19:25:00,
2013-07-12 16:30:00,71.9,59.1,30.15,NE,51,3.0,4.0,64,0.00,,,0.00,Wunderground v.1.15,2013-07-12 19:30:00,
2013-07-12 16:35:00,72.0,58.7,30.16,NNE,27,3.0,5.0,63,0.00,,,0.00,Wunderground v.1.15,2013-07-12 19:35:00,
2013-07-12 16:40:00,71.7,57.5,30.15,ESE,104,3.0,3.0,61,0.00,,,0.00,Wunderground v.1.15,2013-07-12 19:40:00,
2013-07-12 16:45:00,71.6,59.2,30.15,NNE,28,3.0,3.0,65,0.00,,,0.00,Wunderground v.1.15,2013-07-12 19:45:00,
2013-07-12 16:50:00,71.6,57.4,30.15,East,83,3.0,3.0,61,0.00,,,0.00,Wunderground v.1.15,2013-07-12 19:50:00,
2013-07-12 16:55:00,71.7,57.5,30.16,ENE,65,3.0,3.0,61,0.00,,,0.00,Wunderground v.1.15,2013-07-12 19:55:00,
2013-07-12 17:05:00,72.0,58.3,30.16,NNE,32,3.0,8.0,62,0.00,,,0.00,Wunderground v.1.15,2013-07-12 20:05:00,
2013-07-12 17:10:00,71.8,57.2,30.16,NE,49,3.0,3.0,60,0.00,,,0.00,Wunderground v.1.15,2013-07-12 20:10:00,
2013-07-12 17:20:00,71.5,56.9,30.16,ENE,57,3.0,3.0,60,0.00,,,0.00,Wunderground v.1.15,2013-07-12 20:20:00,
2013-07-12 17:25:00,71.3,56.7,30.16,East,80,3.0,3.0,60,0.00,,,0.00,Wunderground v.1.15,2013-07-12 20:25:00,
2013-07-12 17:30:00,70.9,55.4,30.16,NE,38,3.0,3.0,58,0.00,,,0.00,Wunderground v.1.15,2013-07-12 20:30:00,
2013-07-12 17:35:00,70.8,57.1,30.16,ENE,65,3.0,4.0,62,0.00,,,0.00,Wunderground v.1.15,2013-07-12 20:35:00,
2013-07-12 17:40:00,70.7,57.0,30.17,ESE,111,3.0,3.0,62,0.00,,,0.00,Wunderground v.1.15,2013-07-12 20:40:00,
2013-07-12 17:50:00,70.5,55.5,30.16,East,82,3.0,3.0,59,0.00,,,0.00,Wunderground v.1.15,2013-07-12 20:50:00,
2013-07-12 17:55:00,70.4,56.3,30.17,East,88,3.0,3.0,61,0.00,,,0.00,Wunderground v.1.15,2013-07-12 20:55:00,
2013-07-12 18:00:00,70.3,55.8,30.17,NE,38,3.0,5.0,60,0.00,,,0.00,Wunderground v.1.15,2013-07-12 21:00:00,
2013-07-12 18:05:00,70.3,56.7,30.17,East,93,3.0,5.0,62,0.00,,,0.00,Wunderground v.1.15,2013-07-12 21:05:00,
2013-07-12 18:10:00,70.4,55.4,30.17,ENE,78,3.0,5.0,59,0.00,,,0.00,Wunderground v.1.15,2013-07-12 21:10:00,
2013-07-12 18:20:00,70.2,56.1,30.18,East,86,3.0,3.0,61,0.00,,,0.00,Wunderground v.1.15,2013-07-12 21:20:00,
2013-07-12 18:25:00,70.4,55.4,30.18,East,89,2.0,6.0,59,0.00,,,0.00,Wunderground v.1.15,2013-07-12 21:25:00,
2013-07-12 18:30:00,70.1,56.0,30.17,ENE,64,2.0,3.0,61,0.00,,,0.00,Wunderground v.1.15,2013-07-12 21:30:00,
2013-07-12 18:35:00,69.7,55.2,30.17,NE,34,2.0,5.0,60,0.00,,,0.00,Wunderground v.1.15,2013-07-12 21:35:00,
2013-07-12 18:40:00,69.6,56.0,30.17,NE,56,2.0,2.0,62,0.00,,,0.00,Wunderground v.1.15,2013-07-12 21:40:00,
2013-07-12 18:50:00,69.6,55.1,30.17,East,84,2.0,2.0,60,0.00,,,0.00,Wunderground v.1.15,2013-07-12 21:50:00,
2013-07-12 19:00:00,69.1,55.5,30.17,East,90,2.0,2.0,62,0.00,,,0.00,Wunderground v.1.15,2013-07-12 22:00:00,
2013-07-12 19:05:00,68.9,54.4,30.17,NE,52,2.0,2.0,60,0.00,,,0.00,Wunderground v.1.15,2013-07-12 22:05:00,
2013-07-12 19:10:00,68.7,55.2,30.17,East,88,2.0,2.0,62,0.00,,,0.00,Wunderground v.1.15,2013-07-12 22:10:00,
2013-07-12 19:20:00,68.3,54.8,30.18,East,80,2.0,2.0,62,0.00,,,0.00,Wunderground v.1.15,2013-07-12 22:20:00,
2013-07-12 19:25:00,68.0,55.8,30.18,East,99,2.0,2.0,65,0.00,,,0.00,Wunderground v.1.15,2013-07-12 22:25:00,
2013-07-12 19:30:00,67.8,54.3,30.18,ENE,61,1.0,1.0,62,0.00,,,0.00,Wunderground v.1.15,2013-07-12 22:30:00,
2013-07-12 19:40:00,67.5,54.5,30.18,East,84,1.0,1.0,63,0.00,,,0.00,Wunderground v.1.15,2013-07-12 22:40:00,
2013-07-12 19:45:00,67.3,54.7,30.18,NE,56,1.0,1.0,64,0.00,,,0.00,Wunderground v.1.15,2013-07-12 22:45:00,
2013-07-12 19:55:00,66.9,53.9,30.18,East,83,0.0,2.0,63,0.00,,,0.00,Wunderground v.1.15,2013-07-12 22:55:00,
2013-07-12 20:00:00,66.8,54.2,30.18,ENE,78,0.0,1.0,64,0.00,,,0.00,Wunderground v.1.15,2013-07-12 23:00:00,
2013-07-12 20:05:00,66.6,54.0,30.18,ENE,65,0.0,1.0,64,0.00,,,0.00,Wunderground v.1.15,2013-07-12 23:05:00,
2013-07-12 20:10:00,66.5,54.8,30.18,ENE,65,0.0,0.0,66,0.00,,,0.00,Wunderground v.1.15,2013-07-12 23:10:00,
2013-07-12 20:15:00,66.2,54.9,30.18,ENE,62,0.0,0.0,67,0.00,,,0.00,Wunderground v.1.15,2013-07-12 23:15:00,
2013-07-12 20:20:00,65.9,56.2,30.19,ENE,62,0.0,0.0,71,0.00,,,0.00,Wunderground v.1.15,2013-07-12 23:20:00,
2013-07-12 20:25:00,65.6,55.9,30.18,ENE,63,0.0,0.0,71,0.00,,,0.00,Wunderground v.1.15,2013-07-12 23:25:00,
2013-07-12 20:30:00,65.1,56.2,30.19,ENE,63,0.0,0.0,73,0.00,,,0.00,Wunderground v.1.15,2013-07-12 23:30:00,
2013-07-12 20:35:00,64.7,56.2,30.19,ENE,63,0.0,0.0,74,0.00,,,0.00,Wunderground v.1.15,2013-07-12 23:35:00,
2013-07-12 20:45:00,63.5,55.8,30.19,ENE,63,0.0,0.0,76,0.00,,,0.00,Wunderground v.1.15,2013-07-12 23:45:00,
2013-07-12 20:50:00,62.7,55.7,30.19,ENE,63,0.0,0.0,78,0.00,,,0.00,Wunderground v.1.15,2013-07-12 23:50:00,
2013-07-12 20:55:00,62.2,55.6,30.19,ENE,63,0.0,0.0,79,0.00,,,0.00,Wunderground v.1.15,2013-07-12 23:55:00,
2013-07-12 21:00:00,61.6,55.4,30.19,ENE,63,0.0,0.0,80,0.00,,,0.00,Wunderground v.1.15,2013-07-13 00:00:00,
2013-07-12 21:05:00,61.2,56.0,30.19,ENE,63,0.0,0.0,83,0.00,,,0.00,Wunderground v.1.15,2013-07-13 00:05:00,
2013-07-12 21:10:00,60.7,55.2,30.19,ENE,63,0.0,0.0,82,0.00,,,0.00,Wunderground v.1.15,2013-07-13 00:10:00,
2013-07-12 21:15:00,60.3,55.1,30.19,ENE,63,0.0,0.0,83,0.00,,,0.00,Wunderground v.1.15,2013-07-13 00:15:00,
2013-07-12 21:20:00,60.0,55.2,30.19,ENE,63,0.0,0.0,84,0.00,,,0.00,Wunderground v.1.15,2013-07-13 00:20:00,
2013-07-12 21:30:00,59.5,54.7,30.19,ENE,63,0.0,0.0,84,0.00,,,0.00,Wunderground v.1.15,2013-07-13 00:30:00,
2013-07-12 21:35:00,59.2,54.4,30.19,ENE,63,0.0,0.0,84,0.00,,,0.00,Wunderground v.1.15,2013-07-13 00:35:00,
2013-07-12 21:40:00,59.0,54.2,30.20,ENE,63,0.0,0.0,84,0.00,,,0.00,Wunderground v.1.15,2013-07-13 00:40:00,
2013-07-12 21:45:00,58.6,54.1,30.20,ENE,63,0.0,0.0,85,0.00,,,0.00,Wunderground v.1.15,2013-07-13 00:45:00,
2013-07-12 21:50:00,58.4,54.2,30.19,ENE,63,0.0,0.0,86,0.00,,,0.00,Wunderground v.1.15,2013-07-13 00:50:00,
2013-07-12 22:00:00,58.0,53.5,30.20,ENE,63,0.0,0.0,85,0.00,,,0.00,Wunderground v.1.15,2013-07-13 01:00:00,
2013-07-12 22:05:00,57.9,54.1,30.20,ENE,63,0.0,0.0,87,0.00,,,0.00,Wunderground v.1.15,2013-07-13 01:05:00,
2013-07-12 22:10:00,57.8,54.3,30.20,ENE,63,0.0,0.0,88,0.00,,,0.00,Wunderground v.1.15,2013-07-13 01:10:00,
2013-07-12 22:15:00,57.7,54.2,30.20,ENE,63,0.0,0.0,88,0.00,,,0.00,Wunderground v.1.15,2013-07-13 01:15:00,
2013-07-12 22:20:00,57.6,54.1,30.20,ENE,63,0.0,0.0,88,0.00,,,0.00,Wunderground v.1.15,2013-07-13 01:20:00,
2013-07-12 22:30:00,57.2,53.7,30.20,ENE,63,0.0,0.0,88,0.00,,,0.00,Wunderground v.1.15,2013-07-13 01:30:00,
2013-07-12 22:40:00,56.6,53.4,30.20,ENE,63,0.0,0.0,89,0.00,,,0.00,Wunderground v.1.15,2013-07-13 01:40:00,
2013-07-12 22:45:00,56.3,53.1,30.20,ENE,63,0.0,0.0,89,0.00,,,0.00,Wunderground v.1.15,2013-07-13 01:45:00,
2013-07-12 22:55:00,55.7,53.1,30.21,ENE,63,0.0,0.0,91,0.00,,,0.00,Wunderground v.1.15,2013-07-13 01:55:00,
2013-07-12 23:00:00,55.4,52.8,30.21,ENE,63,0.0,0.0,91,0.00,,,0.00,Wunderground v.1.15,2013-07-13 02:00:00,
2013-07-12 23:05:00,55.1,52.5,30.20,ENE,63,0.0,0.0,91,0.00,,,0.00,Wunderground v.1.15,2013-07-13 02:05:00,
2013-07-12 23:10:00,54.8,52.5,30.21,ENE,63,0.0,0.0,92,0.00,,,0.00,Wunderground v.1.15,2013-07-13 02:10:00,
2013-07-12 23:15:00,54.6,52.6,30.20,ENE,63,0.0,0.0,93,0.00,,,0.00,Wunderground v.1.15,2013-07-13 02:15:00,
2013-07-12 23:20:00,54.4,52.4,30.21,ENE,63,0.0,0.0,93,0.00,,,0.00,Wunderground v.1.15,2013-07-13 02:20:00,
2013-07-12 23:26:00,54.1,51.8,30.21,ENE,63,0.0,0.0,92,0.00,,,0.00,Wunderground v.1.15,2013-07-13 02:26:00,
2013-07-12 23:30:00,53.8,51.8,30.21,ENE,63,0.0,0.0,93,0.00,,,0.00,Wunderground v.1.15,2013-07-13 02:30:00,
2013-07-12 23:45:00,53.0,51.3,30.21,NNE,21,0.0,0.0,94,0.00,,,0.00,Wunderground v.1.15,2013-07-13 02:45:00,
2013-07-12 23:50:00,53.0,51.6,30.21,NNE,21,0.0,0.0,95,0.00,,,0.00,Wunderground v.1.15,2013-07-13 02:50:00,
2013-07-12 23:55:00,52.9,51.5,30.21,NNE,21,0.0,0.0,95,0.00,,,0.00,Wunderground v.1.15,2013-07-13 02:55:00,